#timestamp,LO_Frequency,Hit,StdDev 
1604080895.0,286047703.5,P
1604080895.9,286047703.5,P
1604080915.8,286047700.6,P
1604080935.6,286047701.2,Y
1604080955.4,286046997.3,P
1604080975.3,286046999.2,N
1604080995.1,286046997.5,N
1604081015.9,286046997.7,N
1604081035.7,286046997.7,N
1604081055.5,286046997.3,N
1604081075.4,286046996.8,N
1604081095.2,286046995.0,N
1604081115.0,286046994.9,N
1604081115.9,286046994.9,N
1604081135.8,286046997.4,N
1604081155.6,286046997.1,N
1604081175.5,286046997.6,N
1604081195.3,286046997.2,N
1604081215.1,286046997.9,N
1604081235.9,286046997.6,N
1604081255.7,286046997.2,N
1604081275.5,286046999.6,N
1604081295.4,286046999.4,N
1604081315.2,286046999.6,N
1604081335.1,286046997.7,N
1604081336.0,286046997.7,N
1604081355.8,286046995.2,N
1604081375.6,286046995.0,N
1604081395.5,286046995.7,N
1604081415.3,286046995.2,N
1604081435.1,286046996.0,N
1604081455.9,286046993.9,N
1604081475.7,286046994.1,N
1604081495.5,286046993.9,N
1604081515.4,286046994.0,Y
1604081535.2,286046998.9,P
1604081555.1,286046997.2,N
1604081556.0,286046997.2,P
1604081575.8,286046998.0,N
1604081595.6,286046997.1,Y
1604081615.5,286047000.7,P
1604081635.3,286046998.8,N
1604081655.2,286046999.4,N
1604081675.9,286047000.7,N
1604081695.7,286046998.8,N
1604081715.6,286046998.8,N
1604081735.4,286046998.9,N
1604081755.2,286046999.5,N
1604081775.1,286046996.8,Y
1604081776.0,286046996.8,P
1604081795.8,286046996.6,N
1604081815.7,286046998.8,N
1604081835.5,286046999.2,N
1604081855.3,286046997.2,N
1604081875.2,286046999.2,N
1604081895.0,286046997.3,N
1604081895.9,286046997.3,N
1604081915.8,286046996.6,Y
1604081935.6,286047001.2,P
1604081955.4,286047000.0,N
1604081975.3,286047000.0,N
1604081995.1,286047001.1,N
1604082015.8,286046999.6,N
1604082035.7,286046998.3,N
1604082055.5,286046999.5,N
1604082075.4,286046998.9,N
1604082095.2,286046997.0,N
1604082115.0,286046996.9,N
1604082115.9,286046996.9,N
1604082135.8,286046998.0,N
1604082155.6,286046997.9,N
1604082175.4,286046997.4,N
1604082195.3,286046996.9,N
1604082215.1,286046997.4,N
1604082235.9,286046997.3,N
1604082255.7,286046997.8,N
1604082275.5,286046995.7,Y
1604082295.4,286046998.9,P
1604082315.2,286046996.9,P
1604082335.0,286046996.6,P
1604082335.9,286046996.6,Y
1604082355.8,286047000.4,P
1604082375.6,286047000.4,N
1604082395.5,286047000.5,N
1604082415.3,286047001.2,N
1604082435.1,286047000.5,N
1604082455.9,286046999.9,N
1604082475.7,286047000.5,N
1604082495.5,286046999.7,N
1604082515.4,286046998.1,N
1604082535.2,286046998.4,N
1604082555.1,286046998.9,N
1604082556.0,286046998.9,N
1604082575.8,286046998.8,N
1604082595.6,286046999.1,N
1604082615.5,286046998.8,N
1604082635.3,286046999.3,N
1604082655.2,286046996.5,Y
1604082675.9,286046999.5,P
1604082695.7,286046996.6,P
1604082715.6,286046996.6,N
1604082735.4,286046999.4,N
1604082755.2,286046998.9,N
1604082775.1,286046996.9,N
1604082776.0,286046996.9,N
1604082795.8,286046999.5,N
1604082815.7,286046998.7,N
1604082835.5,286046996.6,N
1604082855.3,286046996.5,N
1604082875.2,286046997.8,N
1604082895.9,286046999.6,N
1604082915.7,286046999.6,N
1604082935.6,286046997.0,N
1604082955.4,286046996.9,N
1604082975.2,286046999.6,N
1604082995.1,286046996.5,N
1604083015.8,286046999.6,N
1604083035.7,286046998.6,N
1604083055.5,286047002.3,N
1604083075.4,286047000.2,N
1604083095.2,286047000.0,N
1604083115.0,286046999.9,N
1604083115.9,286046999.9,N
1604083135.8,286046999.7,N
1604083155.6,286046998.7,N
1604083175.5,286047000.3,N
1604083195.3,286046999.0,N
1604083215.1,286046999.5,N
1604083235.9,286046996.9,N
1604083255.7,286046997.1,N
1604083275.5,286046996.9,N
1604083295.4,286046997.7,N
1604083315.2,286046997.1,N
1604083335.1,286046999.6,N
1604083336.0,286046999.6,N
1604083355.8,286046997.4,N
1604083375.6,286046995.6,Y
1604083395.5,286046999.3,P
1604083415.3,286046998.2,P
1604083435.2,286046996.6,P
1604083455.9,286046997.3,N
1604083475.7,286046997.2,N
1604083495.6,286046997.1,Y
1604083515.4,286046999.2,P
1604083535.2,286046995.5,P
1604083555.1,286046994.7,P
1604083556.0,286046994.7,N
1604083575.8,286046992.2,Y
1604083595.7,286046997.6,P
1604083615.5,286046997.1,P
1604083635